Siga o Apolo11 no Facebook   Siga o Apolo11 no Twiiter
Ciência, Espaço e Tecnologia




Elementos Keplerianos formato Two Line

Para que um programa de rastreio possa saber a localização exata de qualquer satélite no espaço e assim poder rastreá-lo corretamente, é necessário que ele seja carregado com algumas informações.

Estas informações são chamadas de Elementos Orbitais ou Elementos Keplerianos e consistem em 2 linhas com dezenas de números. Esses números nada mais são que os parâmetros orbitais do satélite, tais como altitude, atitude, excentricidade da órbita, número de órbitas por dia, etc.

Com base nestas informações o programa é capaz de determinar com bastante exatidão a posição de qualquer satélite no espaço e nos informar em qual horário este estará dentro do alcance de nossa estação. Para que isso seja feito com precisão é necessário que os dados estejam sempre bem atualizadas.

Devido aos parâmetros orbitais serem descritos em 2 linhas, estes formato é também conhecido internacionalmente por 2line (leia-se Two Line”).

Para atualizar seu programa de rastreio basta copiar os dados disponibilizados e fornece-los ao programa. Nossos elementos orbitais são atualizados diariamente.

NOAATodos os satélites ambientais da série NOAA
30 DiasSatélites lançados nos últimos 30 dias
ISSSatélites e foguetes relacionados à Estação Espacial Internacional
HAMSatélites construídos por radiomadores
CUBESatélites tipo cubo, com 10 centímetros de lado
METEOSatélites voltados à previsão do tempo
EDUSatélites construídos e operados por universidades
VIS100 satélites mais brilhantes que podem ser vistos a olho nú



Satélites de Radioamadores
OSCAR 7 (AO-7)          
1 07530U 74089B   22277.74427042 -.00000016  00000+0  18624-3 0  9994
2 07530 101.9182 258.0059 0012023 191.1904 220.8600 12.53657374191160
PHASE 3B (AO-10)        
1 14129U 83058B   22276.56938259 -.00000110  00000+0  00000+0 0  9998
2 14129  26.5650  78.5100 6025400 111.7433 320.5092  2.05870746267635
UOSAT 2 (UO-11)         
1 14781U 84021B   22277.70136730  .00001765  00000+0  21879-3 0  9991
2 14781  97.6289 260.2241 0007575 332.9169  27.1650 14.83843130 56241
LUSAT (LO-19)           
1 20442U 90005G   22277.64802958  .00000249  00000+0  10771-3 0  9991
2 20442  98.8078 244.2453 0011193 203.5858 156.4814 14.33091907708746
EYESAT A (AO-27)        
1 22825U 93061C   22277.58316585  .00000132  00000+0  68625-4 0  9995
2 22825  98.8786 310.8846 0009522  93.7644 266.4627 14.30195654513750
ITAMSAT (IO-26)         
1 22826U 93061D   22277.85967622  .00000152  00000+0  76105-4 0  9994
2 22826  98.8731 311.0394 0010043  80.9718 279.2600 14.30544675514050
RADIO ROSTO (RS-15)     
1 23439U 94085A   22277.92919626 -.00000039  00000+0  10000-3 0  9997
2 23439  64.8215 328.5484 0168032 253.8603 104.3774 11.27572656143837
JAS-2 (FO-29)           
1 24278U 96046B   22277.79455186  .00000051  00000+0  88292-4 0  9991
2 24278  98.5156 286.4333 0350294 359.7566   0.3354 13.53121106290393
TECHSAT 1B (GO-32)      
1 25397U 98043D   22277.63749258  .00000135  00000+0  78816-4 0  9996
2 25397  98.8294 228.4465 0001968 123.0477 237.0890 14.23774701258962
ISS (ZARYA)             
1 25544U 98067A   22278.26131531  .00047886  00000+0  84884-3 0  9990
2 25544  51.6412 151.2403 0002983 259.3832 242.9688 15.49766435362258
PCSAT (NO-44)           
1 26931U 01043C   22277.85418633  .00000161  00000+0  92952-4 0  9995
2 26931  67.0500 136.0113 0005674 258.5551 101.4913 14.30739960 97051
SAUDISAT 1C (SO-50)     
1 27607U 02058C   22277.86529862  .00001517  00000+0  22709-3 0  9999
2 27607  64.5552 327.0491 0081659 273.5640  85.6126 14.76282582 64523
CUTE-1 (CO-55)          
1 27844U 03031E   22276.96056026  .00000398  00000+0  19788-3 0  9990
2 27844  98.6813 283.0216 0010481 142.6290 217.5619 14.22504106999296
CUBESAT XI-IV (CO-57)   
1 27848U 03031J   22276.95755960  .00000338  00000+0  17254-3 0  9996
2 27848  98.6855 283.5145 0010148 156.3453 203.8194 14.22054144999103
MOZHAYETS 4 (RS-22)     
1 27939U 03042A   22278.11142669  .00001364  00000+0  24932-3 0  9996
2 27939  98.2084  58.9081 0012117 217.8299 142.2048 14.67499384 17121
CUBESAT XI-V            
1 28895U 05043F   22277.36387102  .00001980  00000+0  38165-3 0  9997
2 28895  98.1214  47.1624 0017119 154.9028 205.3010 14.64519762903357
FALCONSAT-3             
1 30776U 07006E   22277.37592803  .00110458  00000+0  11877-2 0  9997
2 30776  35.4283 262.6375 0002983 232.6435 127.4028 15.62421477866573
CUTE-1.7+APD II (CO-65) 
1 32785U 08021C   22277.71078903  .00004352  00000+0  45685-3 0  9995
2 32785  97.6701 245.1899 0011284 226.6198 133.4081 14.89952002782754
DELFI-C3 (DO-64)        
1 32789U 08021G   22277.80237539  .00025520  00000+0  13209-2 0  9997
2 32789  97.3344 300.2805 0007801 310.4333  49.6219 15.16179102788481
SEEDS II (CO-66)        
1 32791U 08021J   22278.16288598  .00005718  00000+0  55158-3 0  9998
2 32791  97.6241 251.0106 0012553 175.7610 184.3719 14.93206635783641
YUBILEINY (RS-30)       
1 32953U 08025A   22278.15685497  .00000024  00000+0  10000-3 0  9992
2 32953  82.4990 115.7245 0019875  22.3201 337.8738 12.43113721651962
KKS-1 (KISEKI)          
1 33499U 09002H   22278.19419409  .00001424  00000+0  21375-3 0  9998
2 33499  98.1999 161.9716 0008376 332.6645  27.4122 14.76158573736864
SWISSCUBE               
1 35932U 09051B   22277.57435994  .00001161  00000+0  26908-3 0  9999
2 35932  98.5538 136.4958 0008697  73.7683 286.4470 14.56986298691984
BEESAT-1                
1 35933U 09051C   22277.87212788  .00000984  00000+0  22963-3 0  9996
2 35933  98.5474 138.3525 0006933  83.9990 276.1997 14.56987698692100
ITUPSAT1                
1 35935U 09051E   22278.16293219  .00000920  00000+0  21971-3 0  9997
2 35935  98.5573 138.6773 0009242  86.5037 273.7217 14.56088317691878
XIWANG-1 (HOPE-1)       
1 36122U 09072B   22277.64005918  .00000015  00000+0  15301-3 0  9993
2 36122 100.1975 245.0474 0008167  89.7676 270.4373 13.16372413615177
JUGNU                   
1 37839U 11058B   22278.15627444  .00000524  00000+0  13673-3 0  9992
2 37839  19.9605 230.0597 0018678 286.3775  87.9125 14.12812820567780
SRMSAT                  
1 37841U 11058D   22277.77283881  .00000499  00000+0  12939-3 0  9990
2 37841  19.9726 314.1152 0012064 104.7030  54.0181 14.10777327566694
M-CUBED & EXP-1 PRIME   
1 37855U 11061F   22277.80230714  .00018758  00000+0  78008-3 0  9996
2 37855 101.7213  95.0208 0147446  94.2776 267.5305 15.14465840597771
STRAND-1                
1 39090U 13009E   22277.81576462  .00000383  00000+0  14852-3 0  9999
2 39090  98.3991 113.0806 0008182 311.1536  48.8943 14.35335735503081
SOMP                    
1 39134U 13015E   22277.67094835  .00036163  00000+0  11658-2 0  9993
2 39134  64.8607  62.7365 0034726 263.6064  96.1114 15.31405119523564
BEESAT-3                
1 39135U 13015F   22277.59491506  .00022849  00000+0  87288-3 0  9990
2 39135  64.8648 101.8285 0038878 266.5743  93.0939 15.25914077522756
BEESAT-2                
1 39136U 13015G   22277.25795343  .00019815  00000+0  79547-3 0  9998
2 39136  64.8734 111.7664 0022915 291.9600  67.9095 15.24790716522498
ZACUBE-1 (TSHEPISOSAT)  
1 39417U 13066B   22277.64201489  .00004920  00000+0  59804-3 0  9997
2 39417  97.6493 244.2984 0058675  47.7635 312.8536 14.82687988479302
GOMX-1                  
1 39430U 13066Q   22278.22458329  .00001744  00000+0  31593-3 0  9990
2 39430  97.7980 179.1107 0150222  58.9876 302.6003 14.60404836472319
CUBEBUG-2 (LO-74)       
1 39440U 13066AA  22277.44774329  .00003131  00000+0  42557-3 0  9999
2 39440  97.7372 230.5003 0079309 136.9662 223.7788 14.77310023476373
FUNCUBE-1 (AO-73)       
1 39444U 13066AE  22277.64431549  .00006031  00000+0  71228-3 0  9998
2 39444  97.6371 246.7237 0057203  35.5617 324.9389 14.83846954477710
UWE-3                   
1 39446U 13066AG  22278.16017801  .00003812  00000+0  49132-3 0  9992
2 39446  97.6983 237.5696 0069904  91.5180 269.4041 14.79885409477278
SPROUT                  
1 39770U 14029E   22278.20851874  .00009245  00000+0  91327-3 0  9992
2 39770  97.9485  35.9658 0009066  82.3848 277.8502 14.92134184454023
UNISAT-6                
1 40012U 14033C   22277.66974849  .00003427  00000+0  50117-3 0  9993
2 40012  97.6634  99.8315 0057493 163.9529 196.3519 14.75161272446084
DUCHIFAT-1              
1 40021U 14033M   22277.50491831  .00008121  00000+0  77488-3 0  9997
2 40021  98.0227 229.7818 0013698  46.3793 313.8560 14.93523713450972
QB50P1                  
1 40025U 14033R   22277.46786683  .00005341  00000+0  54585-3 0  9992
2 40025  97.9656 215.7711 0013610  61.7356 298.5234 14.90942405450008
NUDT-PHONESAT           
1 40900U 15049B   22278.17801368  .00047874  00000+0  11363-2 0  9992
2 40900  97.3957 297.1053 0005690 243.1771 182.2863 15.41542246391486
ZDPS 2A                 
1 40901U 15049C   22277.74924785  .00022919  00000+0  88625-3 0  9993
2 40901  97.4608 286.1601 0009701 330.9446  29.1251 15.26185953390119
ZDPS 2B                 
1 40902U 15049D   22278.28459616  .00018920  00000+0  72576-3 0  9995
2 40902  97.4700 284.5300 0008948 322.2871  54.4205 15.26499907390172
XW-2A                   
1 40903U 15049E   22278.13479663  .00041243  00000+0  54457-3 0  9996
2 40903  97.1667 337.0756 0009918  76.9483 338.3177 15.58211234396315
KAITUO 1A               
1 40904U 15049F   22278.10290663  .00007610  00000+0  36759-3 0  9990
2 40904  97.4993 279.6495 0013392 357.3767  89.4006 15.18855579389504
2015-049G               
1 40905U 15049G   22278.08613471  .00004872  00000+0  24832-3 0  9990
2 40905  97.5199 276.8541 0014747   0.4493  72.7610 15.17147328389233
XW-2C                   
1 40906U 15049H   22278.09941252  .00008008  00000+0  37294-3 0  9994
2 40906  97.4970 280.7260 0013182 345.2717  60.1984 15.20105186389575
XW-2D                   
1 40907U 15049J   22278.26176748  .00009588  00000+0  43561-3 0  9992
2 40907  97.4965 280.9737 0011985 339.8978  30.6267 15.20916300389651
